FW5198 Weather Reports


Display with metric or nautical units.
time (UTC)temp
F
wind
direction
speed
MPH
gust
MPH
rain 1hr
in
rain 24hr
in
rain mn
in
humidity
%
barometer
mb
20260502161538 62 108 1.0 5.0 0.00 0.00 0.00 44 1018.0
20260502151552 62 22 1.0 4.0 0.00 0.00 0.00 47 1018.1
20260502123048 44 0 0.0 0.0 0.00 0.00 0.00 85 1017.4
20260502121538 43 0 0.0 0.0 0.00 0.00 0.00 91 1017.3
20260502114541 41 0 0.0 0.0 0.00 0.00 0.00 93 1017.1
20260502113039 40 0 0.0 0.0 0.00 0.00 0.00 92 1017.0
20260502111540 40 0 0.0 0.0 0.00 0.00 0.00 91 1017.0
20260502110036 40 0 0.0 0.0 0.00 0.00 0.00 91 1016.8
20260502104543 41 0 0.0 0.0 0.00 0.00 0.00 90 1016.7
20260502103038 41 0 0.0 0.0 0.00 0.00 0.00 90 1016.7
20260502101548 42 0 0.0 2.0 0.00 0.00 0.00 89 1016.7
20260502070039 47 0 0.0 0.0 0.00 0.00 0.00 77 1017.1
20260502064538 47 0 0.0 0.0 0.00 0.00 0.00 79 1017.2
20260502063041 47 0 0.0 0.0 0.00 0.00 0.00 79 1017.1
20260502061540 47 0 0.0 0.0 0.00 0.00 0.00 78 1017.4
20260502060038 47 0 0.0 1.0 0.00 0.00 0.00 77 1017.6
20260502054542 47 0 0.0 1.0 0.00 0.00 0.00 75 1017.6
20260502053047 48 0 0.0 1.0 0.00 0.00 0.00 74 1017.4
20260502051541 48 0 0.0 0.0 0.00 0.00 0.00 71 1017.0
20260502050039 49 0 0.0 0.0 0.00 0.00 0.00 68 1016.8
20260502044538 49 0 0.0 1.0 0.00 0.00 0.00 67 1016.7
20260502043039 49 0 0.0 1.0 0.00 0.00 0.00 65 1016.7
20260502041539 50 0 0.0 1.0 0.00 0.00 0.00 65 1017.0
20260502040040 50 101 0.0 0.0 0.00 0.00 0.00 64 1017.3
20260502034544 51 0 0.0 1.0 0.00 0.00 0.00 63 1017.6
20260502033041 51 101 0.0 1.0 0.00 0.00 0.00 61 1017.9
20260502031536 51 0 0.0 1.0 0.00 0.00 0.00 61 1017.9
20260502030041 51 0 0.0 1.0 0.00 0.00 0.00 61 1017.9
20260502024553 52 0 0.0 1.0 0.00 0.00 0.00 59 1018.2
20260502023040 53 0 0.0 1.0 0.00 0.00 0.00 58 1017.7
20260502021541 53 0 0.0 4.0 0.00 0.00 0.00 57 1017.6
20260502020040 53 0 0.0 0.0 0.00 0.00 0.00 55 1017.3
20260502014539 53 0 0.0 1.0 0.00 0.00 0.00 56 1017.4
20260502013041 54 0 0.0 1.0 0.00 0.00 0.00 55 1016.9
20260502011542 55 0 0.0 1.0 0.00 0.00 0.00 52 1016.7
20260502010041 55 0 0.0 1.0 0.00 0.00 0.00 49 1016.5
20260502004537 56 84 0.0 1.0 0.00 0.00 0.00 49 1016.6
20260502003039 57 0 0.0 1.0 0.00 0.00 0.00 46 1016.2
20260502001538 58 0 0.0 1.0 0.00 0.00 0.00 43 1016.0
20260502000045 59 0 0.0 2.0 0.00 0.00 0.00 42 1015.5
20260501234543 60 93 0.0 2.0 0.00 0.00 0.00 44 1015.2
20260501233037 61 89 0.0 3.0 0.00 0.00 0.00 38 1014.8
20260501231536 61 256 0.0 4.0 0.00 0.00 0.00 39 1014.9
20260501230038 62 24 0.0 6.0 0.00 0.00 0.00 37 1014.8
20260501224539 62 198 2.0 5.0 0.00 0.00 0.00 35 1014.8
20260501223046 63 75 1.0 6.0 0.00 0.00 0.00 38 1014.5
20260501221540 63 206 1.0 3.0 0.00 0.00 0.00 36 1014.4
20260501220046 63 186 1.0 6.0 0.00 0.00 0.00 37 1014.3
20260501214550 64 139 1.0 5.0 0.00 0.00 0.00 40 1014.4
20260501213035 64 259 1.0 5.0 0.00 0.00 0.00 41 1014.5
20260501211553 64 150 1.0 7.0 0.00 0.00 0.00 43 1014.6
20260501210043 64 84 1.0 4.0 0.00 0.00 0.00 46 1014.8
20260501204614 64 305 1.0 6.0 0.00 0.00 0.00 47 1014.9
20260501203039 65 120 1.0 4.0 0.00 0.00 0.00 46 1015.2
20260501201543 65 50 1.0 6.0 0.00 0.00 0.00 45 1015.4
20260501200044 65 127 1.0 6.0 0.00 0.00 0.00 49 1015.5
20260501194543 65 105 2.0 9.0 0.00 0.00 0.00 49 1015.9
20260501193043 65 64 2.0 10.0 0.00 0.00 0.00 47 1016.1
20260501191543 65 121 2.0 10.0 0.00 0.00 0.00 49 1016.3
20260501190039 65 229 2.0 8.0 0.00 0.00 0.00 49 1016.2
20260501184546 64 86 2.0 7.0 0.00 0.00 0.00 51 1016.2
20260501183045 65 86 2.0 6.0 0.00 0.00 0.00 52 1016.2
20260501181547 64 131 2.0 5.0 0.00 0.00 0.00 53 1016.4
20260501180043 65 46 2.0 4.0 0.00 0.00 0.00 50 1016.0
20260501174546 65 129 1.0 4.0 0.00 0.00 0.00 49 1016.1
20260501173042 64 118 2.0 7.0 0.00 0.00 0.00 51 1016.5
20260501171540 63 0 2.0 8.0 0.00 0.00 0.00 52 1016.7
20260501170042 64 72 1.0 5.0 0.00 0.00 0.00 56 1016.6
20260501164548 63 115 3.0 8.0 0.00 0.00 0.00 58 1016.7
20260501163047 63 93 1.0 3.0 0.00 0.00 0.00 60 1016.6